Home > Weather > Kriens > Past weeks

Flag for Switzerland Weather for the Past 2 Weeks in Kriens, Lucerne, Switzerland

Now
55 °F

Cool.


Feels Like: 48 °F
Forecast: 31 / 52 °F
Wind: 41 mph from Southeast

Location: Altdorf

Current Time: Feb 7, 2016 at 1:04:39 AM

Latest Report: Feb 6, 2016 at 11:00 PM


Visibility: N/A

Pressure: 29.85 "Hg

Humidity: 36%

Dew point: 28 °F

Location of KriensLocation

Historic Weather in Kriens — Graph

°F

Kriens Temperature Yesterday

Maximum temperature yesterday: 59 °F (at 12:00 PM)
Minimum temperature yesterday: 33 °F (at 5:00 AM)
Average temperature yesterday: 48 °F

High & Low Weather Summary for the Past Weeks

 TemperatureHumidityPressure
High60 °F (Feb 1, 1:00 PM)97% (Jan 23, 8:00 AM)30.71 "Hg (Jan 23, 8:00 AM)
Low27 °F (Jan 24, 4:00 AM)29% (Feb 6, 2:00 PM)29.85 "Hg (Feb 6, 11:00 PM)
Average41 °F82%30.37 "Hg
* Reported Jan 23 5:00 AM — Feb 6 11:00 PM, Kriens, Weather by CustomWeather, © 2016

Note: Actual official high and low records may vary slightly from our data, if they occured in-between our weather recording intervals... More about our weather records

Advertising

Kriens Weather History for the Previous 24 Hours

 ConditionsComfort  
Time TempWeatherWind HumidityBarometerVisibility
11:00 PM
Sat, Feb 6
55 °FCool.41 mph36%29.85 "HgN/A
9:00 PM54 °FCool.38 mph37%29.91 "HgN/A
8:00 PM54 °FCool.43 mph34%29.93 "HgN/A
7:00 PM55 °FPassing clouds.41 mph31%29.93 "Hg18 mi
6:00 PM55 °FCool.36 mph31%29.95 "HgN/A
5:00 PM55 °FRefreshingly cool.32 mph32%29.96 "HgN/A
4:00 PM56 °FPartly sunny.26 mph32%29.98 "Hg18 mi
3:00 PM57 °FRefreshingly cool.23 mph32%30.01 "HgN/A
2:00 PM59 °FRefreshingly cool.25 mph29%30.03 "HgN/A
1:00 PM59 °FPartly sunny.21 mph30%30.06 "Hg17 mi
12:00 PM59 °FRefreshingly cool.22 mph31%30.09 "HgN/A
11:00 AM46 °FCool.9 mph70%30.17 "HgN/A
10:00 AM43 °FPartly sunny.14 mph81%30.19 "Hg19 mi
9:00 AM38 °FChilly.6 mph91%30.20 "HgN/A
8:00 AM34 °FChilly.3 mph93%30.22 "HgN/A
7:00 AM35 °FClear.1 mph93%30.22 "Hg19 mi
6:00 AM35 °FChilly.3 mph94%30.24 "HgN/A
5:00 AM33 °FChilly.2 mph96%30.25 "HgN/A
4:00 AM33 °FClear.1 mph96%30.25 "Hg19 mi
Weather by CustomWeather, © 2016

See weather overviewHow to use our weather pages